Regional Weather Roundup
Issued by NWS Portland, ME

Current Version | Previous Version | Text Only | Print | Product List | Glossary Off
Versions: 1 2 3 4 5 6 7 8 9 10 11 12 13 14 15 16 17 18 19 20 21 22 23 24 25 26 27 28 29 30 31 32 33 34 35 36 37 38 39 40 41 42 43 44 45 46 47 48 49 50
000 ASUS41 KGYX 182310 RWRGYX WEATHER ROUNDUP FOR MAINE AND NEW HAMPSHIRE NATIONAL WEATHER SERVICE GRAY ME 700 PM EDT THU OCT 18 2018 MEZ002-005-006-010-012-015-018-020-021-024-026-027-029-190000- MAINE CITY SKY/WX TMP DP RH WIND PRES REMARKS PORTLAND FAIR 36 20 52 W6 30.21R SANFORD FAIR 37 18 46 NW10 30.21R BAR HARBOR FAIR 37 15 40 NW8 30.13R WISCASSET FAIR 37 18 46 VRB6 30.20R ROCKLAND FAIR 34 19 54 W7 30.16R FRYEBURG FAIR 37 15 40 W14G24 30.19R LEWISTONAUBURN FAIR 34 17 50 CALM 30.19R AUGUSTA CLOUDY 37 16 42 W12G18 30.17R WATERVILLE MOCLDY 37 16 42 NW6 30.14R BANGOR FAIR 36 14 40 W6 30.12R GREENVILLE N/A 30 14 51 NW16G33 30.02R WCI 19 MILLINOCKET FAIR 34 17 50 NW12G21 30.09R HOULTON FAIR 31 18 58 VRB6 30.00R PRESQUE ISLE FAIR 32 17 54 NW12 30.01R FRENCHVILLE FAIR 31 15 52 NW15G26 29.96R CARIBOU FAIR 31 18 58 NW13G21 29.98R $$ NHZ002-005-008-009-011-012-014-190000- NEW HAMPSHIRE CITY SKY/WX TMP DP RH WIND PRES REMARKS PORTSMOUTH CLEAR 38 17 42 W6 30.21R ROCHESTER FAIR 35 21 56 N3 30.21R NASHUA FAIR 36 22 56 CALM 30.25R MANCHESTER FAIR 41 16 36 W5 30.21R CONCORD FAIR 36 18 48 W3 30.22R LACONIA FAIR 35 19 52 CALM 30.21R PLYMOUTH FAIR 34 19 54 CALM 30.21R BERLIN FAIR 33 17 51 NW6G18 30.16R WHITEFIELD FAIR 33 17 51 CALM 30.19R JAFFREY FAIR 36 21 54 VRB6 30.22R KEENE FAIR 38 17 42 VRB5 30.24R LEBANON FAIR 33 20 58 CALM 30.22R MT WASHINGTON BLWGSNOW 9 9 100 W62G70 N/A VSB 1/16WCI -21 $$ VTZ005-007-008-190000- VERMONT CITY SKY/WX TMP DP RH WIND PRES REMARKS ST JOHNSBURY N/A 35 16 45 MISG 30.19R MONTPELIER FAIR 33 16 49 W5 30.23R BURLINGTON FAIR 40 15 36 W12G20 30.24R $$ MAZ007-012-024-CTZ003-RIZ002-NYZ038-NYZ072-190000- SOUTHERN NEW ENGLAND AND NY CITY SKY/WX TMP DP RH WIND PRES REMARKS WORCESTER FAIR 36 19 50 W8 30.23R NANTUCKET FAIR 43 19 38 W16 30.25R PROVIDENCE FAIR 41 21 44 W7 30.28R HARTFORD FAIR 40 19 43 CALM 30.29R ALBANY FAIR 41 21 44 NW17G29 30.32R NEW YORK CITY FAIR 51 24 34 NW13 30.33R $$ ANZ081-ANZ082-ANZ150-NHZ014-MEZ023>029-190000- COASTAL MARINE OBSERVATIONS STATION/POSITION TIME TEMP WIND PRES WAVE AIR SEA DIR/SP/G HT/PER (UTC) (F) (DEG/KT/KT) (MB) (FT/S) MOUNT DESERT ROC 2300 41 300/ 26/ 35 1020.1R MATINICUS ROCK 2200 41 300/ 34/ 36 1019.4R ISLE OF SHOALS 2200 43 290/ 19/ 23 1022.1R JEFFREYS LEDGE 2206 55 N/A 5/ 5 $$ .............KEY.............. WCI - WIND CHILL TC - TEMPERATURE IN CELSIUS VSB - VISIBILITY IN MILES HX - HEAT INDEX FAIR- INDICATES FEW OR NO CLOUDS BELOW 12,000 FT, WITH NO SIGNIFICANT WEATHER AND/OR OBSTRUCTIONS TO VISIBILITY.

USA.gov is the U.S. government's official web portal to all federal, state and local government web resources and services.